,,,PA_Meas_PMT16A,,PR_Meas_QMR101_102,,RH_Meas_QMH101,,SR_Meas_QMS101,,TA_Meas_QMH101,,GenWind,,GenWind,
date,time,status,PA,status,PR,status,RH,status,SR,status,TA,status,DirAvg,status,SpdAvg,
2008-10-29, 00:00:05,VALID,1006.39,VALID,0,VALID,93.8581,VALID,0,VALID,24.307,VALID,24,VALID,0.696094,
2008-10-29, 00:01:05,VALID,1006.36,VALID,0,VALID,93.9878,VALID,0,VALID,24.307,VALID,20,VALID,0.569141,
2008-10-29, 00:02:05,VALID,1006.32,VALID,0,VALID,93.9954,VALID,0,VALID,24.2699,VALID,6,VALID,0.892187,
2008-10-29, 00:03:05,VALID,1006.3,VALID,0,VALID,93.8734,VALID,0,VALID,24.231,VALID,345,VALID,0.939844,
2008-10-29, 00:04:05,VALID,1006.3,VALID,0,VALID,93.82,VALID,0,VALID,24.231,VALID,354,VALID,0.850391,
2008-10-29, 00:05:05,VALID,1006.23,VALID,0,VALID,93.7895,VALID,0,VALID,24.2097,VALID,29,VALID,1.39375,
2008-10-29, 00:06:05,VALID,1006.24,VALID,0,VALID,93.8352,VALID,0,VALID,24.1689,VALID,360,VALID,0.583984,
2008-10-29, 00:07:05,VALID,1006.22,VALID,0.5,VALID,93.9115,VALID,0,VALID,24.1689,VALID,2,VALID,0.423438,
2008-10-29, 00:08:05,VALID,1006.2,VALID,0,VALID,94.0031,VALID,0,VALID,24.1707,VALID,349,VALID,0.746875,
2008-10-29, 00:09:05,VALID,1006.18,VALID,0,VALID,94.087,VALID,0.100563,VALID,24.1707,VALID,26,VALID,0.604688,
2008-10-29, 00:10:05,VALID,1006.17,VALID,0,VALID,94.1633,VALID,0.100563,VALID,24.13,VALID,10,VALID,0.628516,
2008-10-29, 00:11:05,VALID,1006.14,VALID,0,VALID,94.2014,VALID,0.100563,VALID,24.13,VALID,10,VALID,0.330469,
2008-10-29, 00:12:05,VALID,1006.11,VALID,0,VALID,94.2014,VALID,0.100563,VALID,24.1318,VALID,351,VALID,0.337891,
2008-10-29, 00:13:05,VALID,1006.14,VALID,0,VALID,94.2167,VALID,0.100563,VALID,24.1123,VALID,317,VALID,0.830469,
2008-10-29, 00:14:05,VALID,1006.08,VALID,0,VALID,94.2624,VALID,0.100563,VALID,24.0929,VALID,308,VALID,0.181641,
2008-10-29, 00:15:05,VALID,1006.09,VALID,0,VALID,94.3311,VALID,0.100563,VALID,24.0929,VALID,309,VALID,0.295703,
2008-10-29, 00:16:05,VALID,1006.06,VALID,0,VALID,94.2853,VALID,0,VALID,24.0734,VALID,310,VALID,0.272656,
2008-10-29, 00:17:05,VALID,1006.07,VALID,0,VALID,94.3311,VALID,0,VALID,24.0539,VALID,310,VALID,0.162109,
2008-10-29, 00:18:05,VALID,1006.05,VALID,0,VALID,94.3921,VALID,0,VALID,24.0539,VALID,310,VALID,0.0464844,
2008-10-29, 00:19:05,VALID,1006.08,VALID,0,VALID,94.4455,VALID,0,VALID,24.0132,VALID,310,VALID,0.0636719,
2008-10-29, 00:20:05,VALID,1006.06,VALID,0,VALID,94.4761,VALID,0,VALID,24.0345,VALID,310,VALID,0,
2008-10-29, 00:21:04,VALID,1006.06,VALID,0,VALID,94.5295,VALID,0,VALID,24.015,VALID,310,VALID,0,
2008-10-29, 00:22:04,VALID,1006.06,VALID,0,VALID,94.5066,VALID,0,VALID,24.015,VALID,310,VALID,0.396094,
2008-10-29, 00:23:04,VALID,1006.07,VALID,0,VALID,94.5218,VALID,0.100563,VALID,23.9955,VALID,310,VALID,0.108203,
2008-10-29, 00:24:04,VALID,1006.07,VALID,0.5,VALID,94.56,VALID,0,VALID,23.9761,VALID,310,VALID,0.274219,
2008-10-29, 00:25:04,VALID,1006.08,VALID,0,VALID,94.5905,VALID,0,VALID,23.9566,VALID,310,VALID,0,
2008-10-29, 00:26:04,VALID,1006.04,VALID,0,VALID,94.5905,VALID,0,VALID,23.9584,VALID,26,VALID,0.460938,
2008-10-29, 00:27:04,VALID,1006.07,VALID,0,VALID,94.6134,VALID,0,VALID,23.9779,VALID,46,VALID,0.671094,
2008-10-29, 00:28:04,VALID,1006.06,VALID,0,VALID,94.6439,VALID,0,VALID,23.9779,VALID,31,VALID,0.4,
2008-10-29, 00:29:04,VALID,1006.02,VALID,0,VALID,94.682,VALID,0,VALID,23.9779,VALID,35,VALID,0.419922,
2008-10-29, 00:30:04,VALID,1006.01,VALID,0,VALID,94.6057,VALID,0,VALID,23.9779,VALID,36,VALID,0.260156,
2008-10-29, 00:31:04,VALID,1005.99,VALID,0,VALID,94.682,VALID,0,VALID,23.9761,VALID,36,VALID,0.127734,
2008-10-29, 00:32:04,VALID,1005.96,VALID,0,VALID,94.6897,VALID,0,VALID,23.9955,VALID,36,VALID,0.136719,
2008-10-29, 00:33:04,VALID,1005.96,VALID,0,VALID,94.6897,VALID,0,VALID,23.9955,VALID,36,VALID,0.259375,
2008-10-29, 00:34:04,VALID,1005.95,VALID,0,VALID,94.7278,VALID,0,VALID,24.0168,VALID,36,VALID,0.144141,
2008-10-29, 00:35:04,VALID,1005.92,VALID,0,VALID,94.7278,VALID,0,VALID,24.0168,VALID,36,VALID,0.1375,
2008-10-29, 00:36:04,VALID,1005.96,VALID,0,VALID,94.7736,VALID,0,VALID,23.9955,VALID,36,VALID,0.311328,
2008-10-29, 00:37:04,VALID,1005.94,VALID,0,VALID,94.8041,VALID,0,VALID,23.9973,VALID,36,VALID,0.123047,
2008-10-29, 00:38:04,VALID,1005.93,VALID,0.5,VALID,94.827,VALID,0,VALID,24.0168,VALID,36,VALID,0.263672,
2008-10-29, 00:39:04,VALID,1005.88,VALID,0,VALID,94.8499,VALID,0,VALID,24.015,VALID,36,VALID,0.119531,
2008-10-29, 00:40:04,VALID,1005.9,VALID,0,VALID,94.8499,VALID,0,VALID,24.015,VALID,36,VALID,0.0835937,
2008-10-29, 00:41:04,VALID,1005.87,VALID,0,VALID,94.8575,VALID,0,VALID,24.015,VALID,36,VALID,0.519531,
2008-10-29, 00:42:04,VALID,1005.87,VALID,0,VALID,94.8575,VALID,0,VALID,23.9937,VALID,36,VALID,0.425391,
2008-10-29, 00:43:04,VALID,1005.83,VALID,0,VALID,94.8956,VALID,0,VALID,24.0168,VALID,36,VALID,0.188672,
2008-10-29, 00:44:04,VALID,1005.86,VALID,0,VALID,94.9414,VALID,0,VALID,24.015,VALID,36,VALID,0.305859,
2008-10-29, 00:45:04,VALID,1005.82,VALID,0,VALID,94.9414,VALID,0,VALID,23.9937,VALID,12,VALID,0.452734,
2008-10-29, 00:46:04,VALID,1005.83,VALID,0,VALID,94.949,VALID,0.100563,VALID,24.015,VALID,5,VALID,0.519141,
2008-10-29, 00:47:04,VALID,1005.77,VALID,0,VALID,94.9414,VALID,0,VALID,24.015,VALID,19,VALID,0.282031,
2008-10-29, 00:48:04,VALID,1005.77,VALID,0,VALID,94.9643,VALID,0,VALID,24.015,VALID,25,VALID,0.395703,
2008-10-29, 00:49:04,VALID,1005.76,VALID,0,VALID,94.949,VALID,0,VALID,24.015,VALID,25,VALID,0,
2008-10-29, 00:50:04,VALID,1005.76,VALID,0,VALID,94.9567,VALID,0.100563,VALID,24.0363,VALID,25,VALID,0,
2008-10-29, 00:51:04,VALID,1005.75,VALID,0,VALID,94.9719,VALID,0,VALID,24.0345,VALID,25,VALID,0,
2008-10-29, 00:52:04,VALID,1005.72,VALID,0,VALID,95.0177,VALID,0,VALID,24.0345,VALID,25,VALID,0,
2008-10-29, 00:53:04,VALID,1005.68,VALID,0,VALID,95.033,VALID,0,VALID,24.0345,VALID,25,VALID,0.140234,
2008-10-29, 00:54:04,VALID,1005.68,VALID,0,VALID,95.033,VALID,0,VALID,24.0326,VALID,7,VALID,0.257031,
2008-10-29, 00:55:04,VALID,1005.66,VALID,0,VALID,95.033,VALID,0,VALID,24.0539,VALID,7,VALID,0.000390625,
2008-10-29, 00:56:04,VALID,1005.62,VALID,0,VALID,95.0406,VALID,0,VALID,24.0734,VALID,7,VALID,0.291016,
2008-10-29, 00:57:04,VALID,1005.56,VALID,0,VALID,95.0177,VALID,0,VALID,24.0539,VALID,7,VALID,0.227344,
2008-10-29, 00:58:04,VALID,1005.59,VALID,0,VALID,95.033,VALID,0,VALID,24.0345,VALID,7,VALID,0,
2008-10-29, 00:59:04,VALID,1005.59,VALID,0,VALID,95.033,VALID,0,VALID,24.0132,VALID,7,VALID,0.0933594,
2008-10-29, 01:00:04,VALID,1005.58,VALID,0,VALID,95.0635,VALID,0,VALID,24.0345,VALID,7,VALID,0.184766,
2008-10-29, 01:01:04,VALID,1005.56,VALID,0,VALID,95.0635,VALID,0,VALID,24.0345,VALID,7,VALID,0.0316406,
2008-10-29, 01:02:04,VALID,1005.56,VALID,0,VALID,95.094,VALID,0.100563,VALID,24.0326,VALID,7,VALID,0,
2008-10-29, 01:03:04,VALID,1005.54,VALID,0,VALID,95.0406,VALID,0,VALID,24.0345,VALID,11,VALID,0.601563,
2008-10-29, 01:04:04,VALID,1005.51,VALID,0,VALID,95.094,VALID,0,VALID,24.0557,VALID,11,VALID,0.400391,
2008-10-29, 01:05:04,VALID,1005.51,VALID,0,VALID,95.0787,VALID,0,VALID,24.015,VALID,11,VALID,0.402734,
2008-10-29, 01:06:04,VALID,1005.49,VALID,0,VALID,95.094,VALID,0,VALID,23.9937,VALID,25,VALID,0.639063,
2008-10-29, 01:07:04,VALID,1005.44,VALID,0,VALID,95.1169,VALID,0.100563,VALID,23.9955,VALID,7,VALID,0.301172,
2008-10-29, 01:08:04,VALID,1005.45,VALID,0,VALID,95.1245,VALID,0,VALID,24.015,VALID,20,VALID,0.652344,
2008-10-29, 01:09:04,VALID,1005.4,VALID,0,VALID,95.0864,VALID,0,VALID,23.9955,VALID,27,VALID,0.592578,
2008-10-29, 01:10:04,VALID,1005.34,VALID,0,VALID,95.155,VALID,0,VALID,23.9955,VALID,27,VALID,0.0972656,
2008-10-29, 01:11:04,VALID,1005.32,VALID,0,VALID,95.1398,VALID,0,VALID,24.015,VALID,22,VALID,0.572656,
2008-10-29, 01:12:04,VALID,1005.28,VALID,0,VALID,95.094,VALID,0,VALID,23.9955,VALID,2,VALID,0.269531,
2008-10-29, 01:13:04,VALID,1005.24,VALID,0,VALID,95.1093,VALID,0,VALID,23.9955,VALID,4,VALID,0.156641,
2008-10-29, 01:14:04,VALID,1005.21,VALID,0,VALID,95.1932,VALID,0.100563,VALID,24.015,VALID,35,VALID,0.819922,
2008-10-29, 01:15:04,VALID,1005.17,VALID,0,VALID,95.2161,VALID,0.100563,VALID,24.0345,VALID,346,VALID,0.845703,
2008-10-29, 01:16:04,VALID,1005.18,VALID,0,VALID,95.2084,VALID,0,VALID,24.0539,VALID,14,VALID,1.08516,
2008-10-29, 01:17:04,VALID,1005.13,VALID,0,VALID,95.1932,VALID,0.100563,VALID,24.0929,VALID,37,VALID,0.766797,
2008-10-29, 01:18:04,VALID,1005.1,VALID,0,VALID,95.1321,VALID,0.100563,VALID,24.1123,VALID,5,VALID,0.44375,
2008-10-29, 01:19:04,VALID,1005.06,VALID,0,VALID,95.1398,VALID,0,VALID,24.13,VALID,43,VALID,0.791406,
2008-10-29, 01:20:04,VALID,1005.03,VALID,0,VALID,95.0787,VALID,0,VALID,24.1707,VALID,11,VALID,1.09922,
2008-10-29, 01:21:04,VALID,1004.98,VALID,0,VALID,94.9414,VALID,0.100563,VALID,24.1902,VALID,13,VALID,1.26289,
2008-10-29, 01:22:04,VALID,1004.99,VALID,0,VALID,94.8575,VALID,0,VALID,24.1884,VALID,350,VALID,0.442578,
2008-10-29, 01:23:04,VALID,1004.94,VALID,0,VALID,94.8194,VALID,0.100563,VALID,24.2078,VALID,304,VALID,0.283594,
2008-10-29, 01:24:04,VALID,1004.92,VALID,0,VALID,94.7736,VALID,0,VALID,24.2291,VALID,304,VALID,0.360547,
2008-10-29, 01:25:04,VALID,1004.9,VALID,0,VALID,94.7431,VALID,0.100563,VALID,24.2291,VALID,304,VALID,0,
2008-10-29, 01:26:04,VALID,1004.87,VALID,0,VALID,94.7507,VALID,0.100563,VALID,24.2078,VALID,304,VALID,0.114844,
2008-10-29, 01:27:04,VALID,1004.88,VALID,0,VALID,94.7125,VALID,0,VALID,24.2097,VALID,304,VALID,0,
2008-10-29, 01:28:04,VALID,1004.86,VALID,0,VALID,94.7049,VALID,0,VALID,24.1902,VALID,304,VALID,0.198437,
2008-10-29, 01:29:04,VALID,1004.81,VALID,0,VALID,94.7125,VALID,0,VALID,24.1707,VALID,304,VALID,0.162891,
2008-10-29, 01:30:04,VALID,1004.77,VALID,0,VALID,94.7354,VALID,0,VALID,24.1707,VALID,304,VALID,0,
2008-10-29, 01:31:04,VALID,1004.76,VALID,0,VALID,94.682,VALID,0,VALID,24.1707,VALID,304,VALID,0,
2008-10-29, 01:32:04,VALID,1004.74,VALID,0,VALID,94.6973,VALID,0.100563,VALID,24.1513,VALID,304,VALID,0,
2008-10-29, 01:33:04,VALID,1004.7,VALID,0,VALID,94.7202,VALID,0,VALID,24.1707,VALID,304,VALID,0,
2008-10-29, 01:34:04,VALID,1004.73,VALID,0,VALID,94.7202,VALID,0.100563,VALID,24.13,VALID,304,VALID,0,
2008-10-29, 01:35:04,VALID,1004.69,VALID,0,VALID,94.7507,VALID,0,VALID,24.1513,VALID,304,VALID,0,
2008-10-29, 01:36:04,VALID,1004.7,VALID,0,VALID,94.7888,VALID,0,VALID,24.1513,VALID,304,VALID,0,
2008-10-29, 01:37:04,VALID,1004.67,VALID,0,VALID,94.8041,VALID,0.100563,VALID,24.1105,VALID,304,VALID,0,
2008-10-29, 01:38:04,VALID,1004.64,VALID,0,VALID,94.827,VALID,0,VALID,24.1123,VALID,304,VALID,0,
2008-10-29, 01:39:04,VALID,1004.63,VALID,0,VALID,94.8575,VALID,0,VALID,24.1123,VALID,304,VALID,0,
2008-10-29, 01:40:04,VALID,1004.6,VALID,0,VALID,94.9033,VALID,0,VALID,24.1123,VALID,304,VALID,0,
2008-10-29, 01:41:04,VALID,1004.59,VALID,0,VALID,94.9262,VALID,0,VALID,24.1123,VALID,304,VALID,0,
2008-10-29, 01:42:04,VALID,1004.64,VALID,0,VALID,94.9796,VALID,0,VALID,24.1318,VALID,304,VALID,0,
2008-10-29, 01:43:04,VALID,1004.61,VALID,0,VALID,95.0024,VALID,0,VALID,24.1123,VALID,304,VALID,0,
2008-10-29, 01:44:04,VALID,1004.62,VALID,0,VALID,95.0177,VALID,0,VALID,24.091,VALID,304,VALID,0,
2008-10-29, 01:45:04,VALID,1004.62,VALID,0,VALID,95.033,VALID,0,VALID,24.091,VALID,304,VALID,0,
2008-10-29, 01:46:04,VALID,1004.61,VALID,0,VALID,95.033,VALID,0.100563,VALID,24.1123,VALID,304,VALID,0,
2008-10-29, 01:47:04,VALID,1004.61,VALID,0,VALID,95.0253,VALID,0,VALID,24.0929,VALID,304,VALID,0,
2008-10-29, 01:48:04,VALID,1004.58,VALID,0,VALID,94.9948,VALID,0,VALID,24.0539,VALID,304,VALID,0.215234,
2008-10-29, 01:49:04,VALID,1004.61,VALID,0,VALID,94.9796,VALID,0.100563,VALID,24.0345,VALID,304,VALID,0.0433594,
2008-10-29, 01:50:04,VALID,1004.57,VALID,0,VALID,95.0024,VALID,0,VALID,24.015,VALID,304,VALID,0,
2008-10-29, 01:51:04,VALID,1004.56,VALID,0,VALID,95.0177,VALID,0,VALID,23.9955,VALID,304,VALID,0,
2008-10-29, 01:52:04,VALID,1004.56,VALID,0,VALID,95.0787,VALID,0,VALID,23.9761,VALID,304,VALID,0,
2008-10-29, 01:53:04,VALID,1004.54,VALID,0,VALID,95.1016,VALID,0,VALID,23.9566,VALID,304,VALID,0,
2008-10-29, 01:54:04,VALID,1004.57,VALID,0,VALID,95.1093,VALID,0,VALID,23.9371,VALID,304,VALID,0,
2008-10-29, 01:55:04,VALID,1004.59,VALID,0,VALID,95.1321,VALID,0,VALID,23.9371,VALID,304,VALID,0,
2008-10-29, 01:56:04,VALID,1004.61,VALID,0,VALID,95.1627,VALID,0,VALID,23.9371,VALID,304,VALID,0,
2008-10-29, 01:57:04,VALID,1004.6,VALID,0,VALID,95.1779,VALID,0,VALID,23.9177,VALID,304,VALID,0,
2008-10-29, 01:58:04,VALID,1004.62,VALID,0,VALID,95.2161,VALID,0,VALID,23.9177,VALID,72,VALID,0.35,
2008-10-29, 01:59:04,VALID,1004.63,VALID,0,VALID,95.2542,VALID,0,VALID,23.9389,VALID,72,VALID,0.209375,
2008-10-29, 02:00:04,VALID,1004.59,VALID,0,VALID,95.2466,VALID,0,VALID,23.8982,VALID,72,VALID,0.153125,
2008-10-29, 02:01:04,VALID,1004.61,VALID,0,VALID,95.2466,VALID,0,VALID,23.8982,VALID,72,VALID,0.175781,
2008-10-29, 02:02:04,VALID,1004.61,VALID,0,VALID,95.2847,VALID,0,VALID,23.9,VALID,72,VALID,0.473437,
2008-10-29, 02:03:04,VALID,1004.6,VALID,0,VALID,95.2847,VALID,0.100563,VALID,23.8787,VALID,54,VALID,0.214062,
2008-10-29, 02:04:04,VALID,1004.63,VALID,0,VALID,95.3,VALID,0,VALID,23.8575,VALID,54,VALID,0.180859,
2008-10-29, 02:05:04,VALID,1004.61,VALID,0,VALID,95.3,VALID,0,VALID,23.8593,VALID,54,VALID,0.209375,
2008-10-29, 02:06:04,VALID,1004.6,VALID,0,VALID,95.3229,VALID,0,VALID,23.8593,VALID,54,VALID,0.103516,
2008-10-29, 02:07:04,VALID,1004.59,VALID,0,VALID,95.3152,VALID,0,VALID,23.8398,VALID,56,VALID,0.305078,
2008-10-29, 02:08:04,VALID,1004.6,VALID,0,VALID,95.2695,VALID,0,VALID,23.8398,VALID,43,VALID,0.297266,
2008-10-29, 02:09:04,VALID,1004.58,VALID,0,VALID,95.3076,VALID,0,VALID,23.8203,VALID,43,VALID,0,
2008-10-29, 02:10:04,VALID,1004.58,VALID,0,VALID,95.3305,VALID,0,VALID,23.8009,VALID,43,VALID,0,
2008-10-29, 02:11:04,VALID,1004.56,VALID,0,VALID,95.3381,VALID,0,VALID,23.8009,VALID,43,VALID,0,
2008-10-29, 02:12:04,VALID,1004.56,VALID,0,VALID,95.3305,VALID,0,VALID,23.8009,VALID,43,VALID,0,
2008-10-29, 02:13:04,VALID,1004.58,VALID,0,VALID,95.3457,VALID,0,VALID,23.8009,VALID,43,VALID,0,
2008-10-29, 02:14:04,VALID,1004.59,VALID,0,VALID,95.3534,VALID,0,VALID,23.7601,VALID,43,VALID,0,
2008-10-29, 02:15:04,VALID,1004.61,VALID,0,VALID,95.361,VALID,0.100563,VALID,23.7814,VALID,43,VALID,0,
2008-10-29, 02:16:04,VALID,1004.62,VALID,0,VALID,95.4449,VALID,0,VALID,23.7601,VALID,43,VALID,0.344531,
2008-10-29, 02:17:04,VALID,1004.61,VALID,0,VALID,95.4678,VALID,0,VALID,23.8009,VALID,43,VALID,0,
2008-10-29, 02:18:04,VALID,1004.6,VALID,0,VALID,95.4831,VALID,0,VALID,23.8203,VALID,43,VALID,0.0015625,
2008-10-29, 02:19:04,VALID,1004.62,VALID,0,VALID,95.4449,VALID,0,VALID,23.8203,VALID,43,VALID,0.194922,
2008-10-29, 02:20:04,VALID,1004.6,VALID,0,VALID,95.4678,VALID,0,VALID,23.8203,VALID,43,VALID,0.0855469,
2008-10-29, 02:21:04,VALID,1004.59,VALID,0,VALID,95.4754,VALID,0,VALID,23.8203,VALID,43,VALID,0,
2008-10-29, 02:22:04,VALID,1004.61,VALID,0,VALID,95.4831,VALID,0.100563,VALID,23.8009,VALID,43,VALID,0,
2008-10-29, 02:23:04,VALID,1004.61,VALID,0,VALID,95.4907,VALID,0,VALID,23.8203,VALID,43,VALID,0,
2008-10-29, 02:24:04,VALID,1004.58,VALID,0,VALID,95.4907,VALID,0,VALID,23.8203,VALID,43,VALID,0,
2008-10-29, 02:25:04,VALID,1004.61,VALID,0,VALID,95.506,VALID,0,VALID,23.8203,VALID,43,VALID,0.146484,
2008-10-29, 02:26:04,VALID,1004.6,VALID,0,VALID,95.5288,VALID,0,VALID,23.8398,VALID,43,VALID,0.172266,
2008-10-29, 02:27:04,VALID,1004.61,VALID,0,VALID,95.5212,VALID,0,VALID,23.8398,VALID,43,VALID,0.171484,
2008-10-29, 02:28:04,VALID,1004.62,VALID,0,VALID,95.506,VALID,0,VALID,23.8009,VALID,43,VALID,0.0847656,
2008-10-29, 02:29:04,VALID,1004.66,VALID,0,VALID,95.5288,VALID,0,VALID,23.8009,VALID,43,VALID,0.167578,
2008-10-29, 02:30:04,VALID,1004.65,VALID,0,VALID,95.5288,VALID,0,VALID,23.8009,VALID,43,VALID,0.366016,
2008-10-29, 02:31:04,VALID,1004.65,VALID,0,VALID,95.5441,VALID,0,VALID,23.7814,VALID,43,VALID,0.207813,
2008-10-29, 02:32:04,VALID,1004.65,VALID,0,VALID,95.4907,VALID,0,VALID,23.7619,VALID,43,VALID,0.223438,
2008-10-29, 02:33:04,VALID,1004.69,VALID,0,VALID,95.4602,VALID,0,VALID,23.7443,VALID,43,VALID,0.115625,
2008-10-29, 02:34:04,VALID,1004.68,VALID,0,VALID,95.506,VALID,0,VALID,23.723,VALID,43,VALID,0.003125,
2008-10-29, 02:35:04,VALID,1004.66,VALID,0,VALID,95.5365,VALID,0,VALID,23.723,VALID,43,VALID,0.210938,
2008-10-29, 02:36:04,VALID,1004.69,VALID,0,VALID,95.5822,VALID,0,VALID,23.723,VALID,43,VALID,0.232422,
2008-10-29, 02:37:04,VALID,1004.67,VALID,0,VALID,95.6128,VALID,0,VALID,23.7425,VALID,43,VALID,0.235547,
2008-10-29, 02:38:04,VALID,1004.67,VALID,0.5,VALID,95.5975,VALID,0,VALID,23.7425,VALID,43,VALID,0,
2008-10-29, 02:39:04,VALID,1004.67,VALID,0,VALID,95.5899,VALID,0,VALID,23.7443,VALID,43,VALID,0,
2008-10-29, 02:40:04,VALID,1004.69,VALID,0,VALID,95.5975,VALID,0,VALID,23.7035,VALID,43,VALID,0,
2008-10-29, 02:41:04,VALID,1004.69,VALID,0,VALID,95.5822,VALID,0,VALID,23.7248,VALID,43,VALID,0,
2008-10-29, 02:42:04,VALID,1004.69,VALID,0,VALID,95.5822,VALID,0,VALID,23.7248,VALID,43,VALID,0.365625,
2008-10-29, 02:43:04,VALID,1004.69,VALID,0,VALID,95.6128,VALID,0,VALID,23.7053,VALID,43,VALID,0.296094,
2008-10-29, 02:44:04,VALID,1004.69,VALID,0,VALID,95.5975,VALID,0,VALID,23.7053,VALID,43,VALID,0.381641,
2008-10-29, 02:45:04,VALID,1004.68,VALID,0,VALID,95.6051,VALID,0,VALID,23.6859,VALID,43,VALID,0.299219,
2008-10-29, 02:46:04,VALID,1004.67,VALID,0,VALID,95.6509,VALID,0,VALID,23.6859,VALID,43,VALID,0.303906,
2008-10-29, 02:47:04,VALID,1004.65,VALID,0,VALID,95.6814,VALID,0,VALID,23.6859,VALID,43,VALID,0.336719,
2008-10-29, 02:48:04,VALID,1004.66,VALID,0,VALID,95.6738,VALID,0,VALID,23.7053,VALID,43,VALID,0.428125,
2008-10-29, 02:49:04,VALID,1004.65,VALID,0,VALID,95.6738,VALID,0,VALID,23.6859,VALID,43,VALID,0.438281,
2008-10-29, 02:50:04,VALID,1004.64,VALID,0,VALID,95.689,VALID,0,VALID,23.6646,VALID,43,VALID,0.368359,
2008-10-29, 02:51:04,VALID,1004.64,VALID,0,VALID,95.6967,VALID,0,VALID,23.6841,VALID,43,VALID,0.292578,
2008-10-29, 02:52:04,VALID,1004.63,VALID,0,VALID,95.7043,VALID,0,VALID,23.7053,VALID,43,VALID,0.233594,
2008-10-29, 02:53:04,VALID,1004.65,VALID,0,VALID,95.6967,VALID,0,VALID,23.7053,VALID,43,VALID,0.254687,
2008-10-29, 02:54:04,VALID,1004.65,VALID,0,VALID,95.7119,VALID,0,VALID,23.6841,VALID,43,VALID,0,
2008-10-29, 02:55:04,VALID,1004.65,VALID,0,VALID,95.7119,VALID,0,VALID,23.6859,VALID,43,VALID,0,
2008-10-29, 02:56:04,VALID,1004.65,VALID,0,VALID,95.7272,VALID,0,VALID,23.7053,VALID,43,VALID,0,
2008-10-29, 02:57:04,VALID,1004.64,VALID,0,VALID,95.7196,VALID,0,VALID,23.7053,VALID,43,VALID,0,
2008-10-29, 02:58:04,VALID,1004.65,VALID,0,VALID,95.773,VALID,0,VALID,23.7248,VALID,43,VALID,0,
2008-10-29, 02:59:04,VALID,1004.65,VALID,0,VALID,95.7653,VALID,0,VALID,23.7035,VALID,43,VALID,0,
2008-10-29, 03:00:04,VALID,1004.63,VALID,0,VALID,95.7577,VALID,0,VALID,23.7248,VALID,43,VALID,0,
2008-10-29, 03:01:04,VALID,1004.6,VALID,0,VALID,95.773,VALID,0,VALID,23.7443,VALID,43,VALID,0,
2008-10-29, 03:02:04,VALID,1004.57,VALID,0,VALID,95.773,VALID,0,VALID,23.7248,VALID,43,VALID,0,
2008-10-29, 03:03:04,VALID,1004.6,VALID,0,VALID,95.7653,VALID,0,VALID,23.7655,VALID,43,VALID,0,
2008-10-29, 03:04:04,VALID,1004.6,VALID,0,VALID,95.773,VALID,0,VALID,23.7443,VALID,43,VALID,0,
2008-10-29, 03:05:04,VALID,1004.59,VALID,0,VALID,95.7577,VALID,0,VALID,23.7637,VALID,43,VALID,0,
2008-10-29, 03:06:04,VALID,1004.57,VALID,0,VALID,95.7653,VALID,0,VALID,23.7655,VALID,43,VALID,0,
2008-10-29, 03:07:04,VALID,1004.58,VALID,0,VALID,95.7653,VALID,0,VALID,23.7425,VALID,43,VALID,0,
2008-10-29, 03:08:04,VALID,1004.59,VALID,0,VALID,95.7806,VALID,0,VALID,23.7637,VALID,43,VALID,0,
2008-10-29, 03:09:04,VALID,1004.61,VALID,0,VALID,95.773,VALID,0,VALID,23.7619,VALID,43,VALID,0.108594,
2008-10-29, 03:10:04,VALID,1004.57,VALID,0,VALID,95.773,VALID,0,VALID,23.7619,VALID,43,VALID,0.202734,
2008-10-29, 03:11:04,VALID,1004.6,VALID,0,VALID,95.8035,VALID,0,VALID,23.8027,VALID,43,VALID,0.0308594,
2008-10-29, 03:12:04,VALID,1004.59,VALID,0,VALID,95.8264,VALID,0.100563,VALID,23.7814,VALID,43,VALID,0,
2008-10-29, 03:13:04,VALID,1004.6,VALID,0,VALID,95.834,VALID,0.100563,VALID,23.8009,VALID,43,VALID,0,
2008-10-29, 03:14:04,VALID,1004.64,VALID,0,VALID,95.8035,VALID,0.100563,VALID,23.8009,VALID,43,VALID,0.139062,
2008-10-29, 03:15:04,VALID,1004.64,VALID,0,VALID,95.7806,VALID,0,VALID,23.7814,VALID,43,VALID,0.178516,
2008-10-29, 03:16:04,VALID,1004.65,VALID,0,VALID,95.7882,VALID,0,VALID,23.7814,VALID,43,VALID,0.118359,
2008-10-29, 03:17:04,VALID,1004.67,VALID,0,VALID,95.834,VALID,0,VALID,23.7814,VALID,43,VALID,0,
2008-10-29, 03:18:04,VALID,1004.69,VALID,0,VALID,95.8493,VALID,0,VALID,23.8203,VALID,43,VALID,0,
2008-10-29, 03:19:04,VALID,1004.69,VALID,0,VALID,95.8645,VALID,0,VALID,23.8398,VALID,43,VALID,0,
2008-10-29, 03:20:04,VALID,1004.7,VALID,0,VALID,95.8721,VALID,0,VALID,23.8398,VALID,43,VALID,0,
2008-10-29, 03:21:04,VALID,1004.68,VALID,0,VALID,95.8493,VALID,0,VALID,23.8398,VALID,43,VALID,0,
2008-10-29, 03:22:04,VALID,1004.67,VALID,0,VALID,95.8645,VALID,0.100563,VALID,23.8787,VALID,43,VALID,0,
2008-10-29, 03:23:04,VALID,1004.7,VALID,0,VALID,95.8645,VALID,0,VALID,23.8787,VALID,43,VALID,0,
2008-10-29, 03:24:04,VALID,1004.67,VALID,0,VALID,95.8493,VALID,0.100563,VALID,23.8787,VALID,43,VALID,0,
2008-10-29, 03:25:04,VALID,1004.68,VALID,0,VALID,95.8187,VALID,0,VALID,23.8787,VALID,43,VALID,0,
2008-10-29, 03:26:04,VALID,1004.66,VALID,0,VALID,95.8264,VALID,0.100563,VALID,23.8787,VALID,43,VALID,0,
2008-10-29, 03:27:04,VALID,1004.67,VALID,0,VALID,95.8493,VALID,0,VALID,23.8575,VALID,43,VALID,0,
2008-10-29, 03:28:04,VALID,1004.66,VALID,0,VALID,95.8416,VALID,0.100563,VALID,23.8769,VALID,43,VALID,0,
2008-10-29, 03:29:04,VALID,1004.64,VALID,0,VALID,95.8569,VALID,0.100563,VALID,23.8769,VALID,43,VALID,0,
2008-10-29, 03:30:04,VALID,1004.65,VALID,0,VALID,95.8645,VALID,0.100563,VALID,23.9177,VALID,43,VALID,0,
2008-10-29, 03:31:04,VALID,1004.65,VALID,0,VALID,95.8493,VALID,0,VALID,23.9371,VALID,43,VALID,0,
2008-10-29, 03:32:04,VALID,1004.65,VALID,0,VALID,95.8874,VALID,0.100563,VALID,23.9353,VALID,43,VALID,0,
2008-10-29, 03:33:04,VALID,1004.67,VALID,0,VALID,95.8569,VALID,0.100563,VALID,23.9566,VALID,43,VALID,0,
2008-10-29, 03:34:04,VALID,1004.67,VALID,0,VALID,95.8645,VALID,0.100563,VALID,23.9353,VALID,43,VALID,0,
2008-10-29, 03:35:04,VALID,1004.68,VALID,0,VALID,95.8493,VALID,0.100563,VALID,23.9371,VALID,43,VALID,0.0441406,
2008-10-29, 03:36:04,VALID,1004.69,VALID,0,VALID,95.834,VALID,0.100563,VALID,23.9159,VALID,43,VALID,0.353125,
2008-10-29, 03:37:04,VALID,1004.69,VALID,0,VALID,95.8035,VALID,0.100563,VALID,23.8964,VALID,43,VALID,0.364062,
2008-10-29, 03:38:04,VALID,1004.71,VALID,0,VALID,95.8416,VALID,0.100563,VALID,23.9371,VALID,43,VALID,0.234766,
2008-10-29, 03:39:04,VALID,1004.75,VALID,0,VALID,95.8416,VALID,0,VALID,23.8982,VALID,43,VALID,0.400391,
2008-10-29, 03:40:04,VALID,1004.74,VALID,0,VALID,95.8569,VALID,0,VALID,23.9389,VALID,43,VALID,0.478906,
2008-10-29, 03:41:04,VALID,1004.74,VALID,0,VALID,95.8416,VALID,0,VALID,23.9389,VALID,43,VALID,0.333203,
2008-10-29, 03:42:04,VALID,1004.76,VALID,0,VALID,95.8798,VALID,0,VALID,23.9389,VALID,43,VALID,0.283203,
2008-10-29, 03:43:04,VALID,1004.77,VALID,0,VALID,95.8798,VALID,0,VALID,23.9371,VALID,43,VALID,0.250781,
2008-10-29, 03:44:04,VALID,1004.77,VALID,0,VALID,95.8874,VALID,0,VALID,23.9584,VALID,43,VALID,0,
2008-10-29, 03:45:04,VALID,1004.75,VALID,0,VALID,95.895,VALID,0,VALID,23.9779,VALID,43,VALID,0,
2008-10-29, 03:46:04,VALID,1004.76,VALID,0,VALID,95.9027,VALID,0,VALID,23.9973,VALID,43,VALID,0,
2008-10-29, 03:47:04,VALID,1004.75,VALID,0,VALID,95.9027,VALID,0,VALID,23.9761,VALID,43,VALID,0,
2008-10-29, 03:48:04,VALID,1004.73,VALID,0,VALID,95.9027,VALID,0,VALID,23.9973,VALID,43,VALID,0,
2008-10-29, 03:49:04,VALID,1004.73,VALID,0,VALID,95.8798,VALID,0,VALID,23.9973,VALID,43,VALID,0,